Location: Cuzcurrita-R�o Tir�n
(42.5415°N, 2.9642°W)
Time: 02:09:50
(UTC+00:00)

YAOGAN 1 - Pass Details

Date: 17 January 2021
Orbit: 618 x 620 km, 97.9° (Epoch: 08 March)

Event Time Altitude Azimuth Distance (km) Brightness Sun altitude
Rises 19:12:41 0° 177° (S) 2,881 6.0 -22.9°
Reaches altitude 10° 19:14:54 10° 182° (S) 1,981 5.2 -23.3°
Maximum altitude 19:19:07 54° 260° (W) 755 3.2 -24.0°
Drops below altitude 10° 19:23:23 10° 338° (NNW) 1,997 5.3 -24.8°
Sets 19:25:37 0° 343° (NNW) 2,908 6.2 -25.2°
